Tracking 20040 objects as of 18-Nov-2019
Live streaming from Space Station
objects crossing your sky now

CUBEBUG 2

Track CUBEBUG 2 now!
10-day predictions
CUBEBUG 2 is classified as:


NORAD ID: 39440
Int'l Code: 2013-066AA
Perigee: 593.9 km
Apogee: 704.9 km
Inclination: 97.6 °
Period: 97.6 minutes
Semi major axis: 7020 km
RCS: Unknown
Launch date: November 21, 2013
Source: Argentina (ARGN)
Launch site: Orenburg, Russia (OREN)

Uplink (MHz):
Downlink (MHz): 437.445
Beacon (MHz):
Mode: 1k2AFSK 9k6FSK
Call sign: CUBEB2-6
Status: Active

aabbcc
Your satellite tracking list
Your tracking list is empty




NASA's NSSDC Master Catalog

Two Line Element Set (TLE):
1 39440U 13066AA  19322.49883486  .00000214  00000-0  36911-4 0  9994
2 39440  97.6126 311.9938 0079081 309.2992  50.1224 14.75917837322515
Source of the keplerian elements: Caltech